Location: Tierra del Sol
(32.6128°N, 116.3319°W)
Time: 20:08:13
(UTC-08:00)

OTV 5 (USA 277) - Pass Details

Date: 13 October 2017
Orbit: 404 x 417 km, 43.0° (Epoch: 07 September)

Event Time Altitude Azimuth Distance (km) Brightness Sun altitude
Rises 18:53:00 0° 276° (W) 2,349 ? -8.9°
Reaches altitude 10° 18:55:29 10° 293° (WNW) 1,488 ? -9.4°
Maximum altitude 18:58:05 20° 344° (NNW) 1,014 ? -10.0°
Drops below altitude 10° 19:00:41 10° 35° (NE) 1,490 ? -10.5°
Enters shadow 19:01:14 - 40° (NE) 1,664 ? -10.6°
